Tracking 28888 objects as of 22-May-2024
HD Live streaming from Space Station
objects crossing your sky now

USA 335

Track USA 335 now!
10-day predictions


NORAD ID: 53352
Int'l Code: 2022-091A
Perigee: 574.3 km
Apogee: 589.4 km
Inclination: 70.0 °
Period: 96.2 minutes
Semi major axis: 6952 km
RCS: Unknown
Launch date: August 4, 2022
Source: United States (US)
Launch site: Rocket Lab Launch Complex (RLLC)
Your satellite tracking list
Your tracking list is empty




NASA's NSSDC Master Catalog

Two Line Element Set (TLE):
1 53352U 22091A   24141.98187439 0.00044000  00000-0  37649-2 0    05
2 53352  70.0256 191.4331 0010870 162.7324 197.2676 14.97458546    04
Source of the keplerian elements: McCants